Time,TemperatureF,DewpointF,PressureIn,WindDirection,WindDirectionDegrees,WindSpeedMPH,WindSpeedGustMPH,Humidity,HourlyPrecipIn,Conditions,Clouds,dailyrainin,SoftwareType,DateUTC
2013-06-27 00:14:00,77.2,76.6,29.72,NE,45,3.2,-999.0,98,-99.99,,,0.00,Acu-Link.com,2013-06-27 04:14:00,
2013-06-27 00:30:00,75.7,75.1,29.70,SSE,157,2.2,-999.0,98,-99.99,,,0.02,Acu-Link.com,2013-06-27 04:30:00,
2013-06-27 00:45:00,75.7,75.1,29.68,SSW,202,2.2,-999.0,98,-99.99,,,0.02,Acu-Link.com,2013-06-27 04:45:00,
2013-06-27 01:00:00,75.6,75.0,29.67,SSE,157,2.2,-999.0,98,-99.99,,,0.02,Acu-Link.com,2013-06-27 05:00:00,
2013-06-27 01:15:00,75.7,75.1,29.68,SSW,202,2.7,-999.0,98,-99.99,,,0.02,Acu-Link.com,2013-06-27 05:15:00,
2013-06-27 01:31:00,75.7,75.1,29.68,South,180,3.7,-999.0,98,-99.99,,,0.02,Acu-Link.com,2013-06-27 05:31:00,
2013-06-27 01:46:00,75.7,75.1,29.67,South,180,3.2,-999.0,98,-99.99,,,0.02,Acu-Link.com,2013-06-27 05:46:00,
2013-06-27 02:01:00,76.1,75.5,29.66,South,180,4.7,-999.0,98,-99.99,,,0.02,Acu-Link.com,2013-06-27 06:01:00,
2013-06-27 02:16:00,76.3,75.7,29.66,SW,225,1.7,-999.0,98,-99.99,,,0.02,Acu-Link.com,2013-06-27 06:16:00,
2013-06-27 02:32:00,73.2,72.6,29.72,West,270,9.9,-999.0,98,-99.99,,,0.03,Acu-Link.com,2013-06-27 06:32:00,
2013-06-27 02:47:00,68.4,67.8,29.71,NW,315,3.2,-999.0,98,-99.99,,,0.11,Acu-Link.com,2013-06-27 06:47:00,
2013-06-27 03:02:00,67.1,66.5,29.67,NNE,22,2.2,-999.0,98,-99.99,,,0.28,Acu-Link.com,2013-06-27 07:02:00,
2013-06-27 03:17:00,67.3,66.7,29.65,SW,225,2.2,-999.0,98,-99.99,,,0.56,Acu-Link.com,2013-06-27 07:17:00,
2013-06-27 03:33:00,67.3,66.7,29.65,NW,315,2.7,-999.0,98,-99.99,,,0.56,Acu-Link.com,2013-06-27 07:33:00,
2013-06-27 03:48:00,67.3,66.7,29.69,SE,135,2.7,-999.0,98,-99.99,,,0.56,Acu-Link.com,2013-06-27 07:48:00,
2013-06-27 04:03:00,67.3,66.7,29.69,WSW,247,2.7,-999.0,98,-99.99,,,0.56,Acu-Link.com,2013-06-27 08:03:00,
2013-06-27 04:19:00,67.3,66.7,29.69,SW,225,1.1,-999.0,98,-99.99,,,0.56,Acu-Link.com,2013-06-27 08:19:00,
2013-06-27 04:34:00,67.3,66.7,29.68,WNW,292,1.7,-999.0,98,-99.99,,,0.56,Acu-Link.com,2013-06-27 08:34:00,
2013-06-27 04:49:00,67.3,66.7,29.67,South,180,2.2,-999.0,98,-99.99,,,0.56,Acu-Link.com,2013-06-27 08:49:00,
2013-06-27 05:04:00,67.3,66.7,29.65,SSE,157,1.7,-999.0,98,-99.99,,,0.56,Acu-Link.com,2013-06-27 09:04:00,
2013-06-27 05:19:00,67.3,66.7,29.66,ESE,112,0.0,-999.0,98,-99.99,,,0.56,Acu-Link.com,2013-06-27 09:19:00,
2013-06-27 05:35:00,67.6,67.0,29.64,East,90,1.1,-999.0,98,-99.99,,,0.58,Acu-Link.com,2013-06-27 09:35:00,
2013-06-27 05:50:00,67.6,67.0,29.64,SSW,202,0.0,-999.0,98,-99.99,,,0.58,Acu-Link.com,2013-06-27 09:50:00,
2013-06-27 06:05:00,68.0,67.4,29.64,ESE,112,0.0,-999.0,98,-99.99,,,0.58,Acu-Link.com,2013-06-27 10:05:00,
2013-06-27 06:20:00,68.2,67.6,29.64,South,180,0.0,-999.0,98,-99.99,,,0.58,Acu-Link.com,2013-06-27 10:20:00,
2013-06-27 06:36:00,68.4,67.8,29.65,NNE,22,1.7,-999.0,98,-99.99,,,0.58,Acu-Link.com,2013-06-27 10:36:00,
2013-06-27 06:51:00,68.5,67.9,29.65,ENE,67,0.0,-999.0,98,-99.99,,,0.58,Acu-Link.com,2013-06-27 10:51:00,
2013-06-27 07:06:00,68.5,67.9,29.64,ENE,67,0.0,-999.0,98,-99.99,,,0.58,Acu-Link.com,2013-06-27 11:06:00,
2013-06-27 07:21:00,68.9,68.3,29.64,South,180,0.0,-999.0,98,-99.99,,,0.58,Acu-Link.com,2013-06-27 11:21:00,
2013-06-27 07:37:00,69.1,68.5,29.65,ENE,67,0.0,-999.0,98,-99.99,,,0.58,Acu-Link.com,2013-06-27 11:37:00,
2013-06-27 07:52:00,69.3,68.7,29.64,SSW,202,0.0,-999.0,98,-99.99,,,0.58,Acu-Link.com,2013-06-27 11:52:00,
2013-06-27 08:07:00,70.0,69.4,29.65,West,270,0.0,-999.0,98,-99.99,,,0.58,Acu-Link.com,2013-06-27 12:07:00,
2013-06-27 08:22:00,71.1,70.5,29.64,SSW,202,2.2,-999.0,98,-99.99,,,0.58,Acu-Link.com,2013-06-27 12:22:00,
2013-06-27 08:38:00,72.3,71.7,29.64,SSE,157,1.7,-999.0,98,-99.99,,,0.58,Acu-Link.com,2013-06-27 12:38:00,
2013-06-27 08:53:00,72.7,72.1,29.65,South,180,3.7,-999.0,98,-99.99,,,0.58,Acu-Link.com,2013-06-27 12:53:00,
2013-06-27 09:08:00,73.4,72.8,29.65,SSW,202,2.7,-999.0,98,-99.99,,,0.58,Acu-Link.com,2013-06-27 13:08:00,
2013-06-27 09:24:00,74.1,73.5,29.64,SSW,202,4.2,-999.0,98,-99.99,,,0.58,Acu-Link.com,2013-06-27 13:24:00,
2013-06-27 09:39:00,76.1,75.5,29.65,SW,225,4.2,-999.0,98,-99.99,,,0.58,Acu-Link.com,2013-06-27 13:39:00,
2013-06-27 09:54:00,77.2,76.6,29.63,SSW,202,7.3,-999.0,98,-99.99,,,0.58,Acu-Link.com,2013-06-27 13:54:00,
2013-06-27 10:09:00,77.0,76.4,29.64,South,180,3.7,-999.0,98,-99.99,,,0.58,Acu-Link.com,2013-06-27 14:09:00,
2013-06-27 10:24:00,77.4,76.8,29.64,SSE,157,5.8,-999.0,98,-99.99,,,0.58,Acu-Link.com,2013-06-27 14:24:00,
2013-06-27 10:40:00,77.7,77.1,29.63,SW,225,4.7,-999.0,98,-99.99,,,0.58,Acu-Link.com,2013-06-27 14:40:00,
2013-06-27 10:55:00,79.2,78.6,29.62,South,180,4.2,-999.0,98,-99.99,,,0.58,Acu-Link.com,2013-06-27 14:55:00,
2013-06-27 11:10:00,79.9,79.3,29.64,ESE,112,5.3,-999.0,98,-99.99,,,0.58,Acu-Link.com,2013-06-27 15:10:00,
2013-06-27 11:25:00,79.0,78.4,29.63,SSW,202,3.2,-999.0,98,-99.99,,,0.58,Acu-Link.com,2013-06-27 15:25:00,
2013-06-27 11:40:00,79.7,79.1,29.63,SW,225,3.2,-999.0,98,-99.99,,,0.58,Acu-Link.com,2013-06-27 15:40:00,
2013-06-27 11:56:00,80.6,80.0,29.62,SSW,202,6.3,-999.0,98,-99.99,,,0.58,Acu-Link.com,2013-06-27 15:56:00,
2013-06-27 12:11:00,82.8,82.2,29.62,East,90,5.3,-999.0,98,-99.99,,,0.58,Acu-Link.com,2013-06-27 16:11:00,
2013-06-27 12:26:00,82.4,81.8,29.62,SSW,202,1.7,-999.0,98,-99.99,,,0.58,Acu-Link.com,2013-06-27 16:26:00,
2013-06-27 12:41:00,82.8,82.2,29.62,WSW,247,2.7,-999.0,98,-99.99,,,0.58,Acu-Link.com,2013-06-27 16:41:00,
2013-06-27 12:57:00,83.8,83.2,29.61,SSE,157,5.3,-999.0,98,-99.99,,,0.58,Acu-Link.com,2013-06-27 16:57:00,
2013-06-27 13:12:00,84.2,83.6,29.60,South,180,8.3,-999.0,98,-99.99,,,0.58,Acu-Link.com,2013-06-27 17:12:00,
2013-06-27 13:27:00,86.4,85.8,29.61,SSE,157,1.7,-999.0,98,-99.99,,,0.58,Acu-Link.com,2013-06-27 17:27:00,
2013-06-27 13:42:00,84.0,83.4,29.60,SW,225,2.7,-999.0,98,-99.99,,,0.58,Acu-Link.com,2013-06-27 17:42:00,
2013-06-27 13:58:00,89.1,88.5,29.60,ESE,112,2.2,-999.0,98,-99.99,,,0.58,Acu-Link.com,2013-06-27 17:58:00,
2013-06-27 14:13:00,88.2,87.6,29.59,South,180,3.2,-999.0,98,-99.99,,,0.58,Acu-Link.com,2013-06-27 18:13:00,
2013-06-27 14:28:00,90.0,89.4,29.60,SSW,202,3.7,-999.0,98,-99.99,,,0.58,Acu-Link.com,2013-06-27 18:28:00,
2013-06-27 14:44:00,90.3,89.7,29.59,SSW,202,2.7,-999.0,98,-99.99,,,0.58,Acu-Link.com,2013-06-27 18:44:00,
2013-06-27 14:59:00,92.7,92.0,29.59,SSW,202,3.2,-999.0,98,-99.99,,,0.58,Acu-Link.com,2013-06-27 18:59:00,
2013-06-27 15:15:00,84.4,83.8,29.58,SSE,157,4.2,-999.0,98,-99.99,,,0.58,Acu-Link.com,2013-06-27 19:15:00,
2013-06-27 15:30:00,84.0,83.4,29.59,SSE,157,5.8,-999.0,98,-99.99,,,0.58,Acu-Link.com,2013-06-27 19:30:00,
2013-06-27 15:45:00,87.1,86.5,29.58,NNW,337,6.8,-999.0,98,-99.99,,,0.58,Acu-Link.com,2013-06-27 19:45:00,
2013-06-27 16:00:00,88.7,88.1,29.57,SW,225,3.7,-999.0,98,-99.99,,,0.58,Acu-Link.com,2013-06-27 20:00:00,
2013-06-27 16:15:00,89.8,89.2,29.57,SSW,202,2.7,-999.0,98,-99.99,,,0.58,Acu-Link.com,2013-06-27 20:15:00,
2013-06-27 16:31:00,85.6,85.0,29.55,South,180,4.7,-999.0,98,-99.99,,,0.58,Acu-Link.com,2013-06-27 20:31:00,
2013-06-27 16:46:00,87.1,86.5,29.55,WSW,247,4.2,-999.0,98,-99.99,,,0.58,Acu-Link.com,2013-06-27 20:46:00,
2013-06-27 17:01:00,87.6,87.0,29.55,South,180,2.7,-999.0,98,-99.99,,,0.58,Acu-Link.com,2013-06-27 21:01:00,
2013-06-27 17:16:00,86.7,86.1,29.56,SSE,157,3.2,-999.0,98,-99.99,,,0.58,Acu-Link.com,2013-06-27 21:16:00,
2013-06-27 17:31:00,86.5,85.9,29.55,SSW,202,3.2,-999.0,98,-99.99,,,0.58,Acu-Link.com,2013-06-27 21:31:00,
2013-06-27 17:46:00,85.1,84.5,29.55,SSE,157,2.2,-999.0,98,-99.99,,,0.58,Acu-Link.com,2013-06-27 21:46:00,
2013-06-27 18:02:00,84.4,83.8,29.54,SSE,157,1.1,-999.0,98,-99.99,,,0.58,Acu-Link.com,2013-06-27 22:02:00,
2013-06-27 18:17:00,84.2,83.6,29.54,SW,225,0.0,-999.0,98,-99.99,,,0.58,Acu-Link.com,2013-06-27 22:17:00,
2013-06-27 18:32:00,84.4,83.8,29.56,SW,225,2.2,-999.0,98,-99.99,,,0.58,Acu-Link.com,2013-06-27 22:32:00,
2013-06-27 18:48:00,83.7,83.1,29.55,WSW,247,2.7,-999.0,98,-99.99,,,0.58,Acu-Link.com,2013-06-27 22:48:00,
2013-06-27 19:03:00,81.9,81.3,29.54,SSW,202,4.2,-999.0,98,-99.99,,,0.58,Acu-Link.com,2013-06-27 23:03:00,
2013-06-27 19:19:00,80.4,79.8,29.56,SSE,157,1.7,-999.0,98,-99.99,,,0.58,Acu-Link.com,2013-06-27 23:19:00,
2013-06-27 19:34:00,78.8,78.2,29.56,SSW,202,4.7,-999.0,98,-99.99,,,0.58,Acu-Link.com,2013-06-27 23:34:00,
2013-06-27 20:05:00,77.9,77.3,29.57,ESE,112,2.2,-999.0,98,-99.99,,,0.58,Acu-Link.com,2013-06-28 00:05:00,
2013-06-27 20:20:00,77.5,76.9,29.58,South,180,2.7,-999.0,98,-99.99,,,0.58,Acu-Link.com,2013-06-28 00:20:00,
2013-06-27 20:35:00,77.0,76.4,29.58,SE,135,1.7,-999.0,98,-99.99,,,0.58,Acu-Link.com,2013-06-28 00:35:00,
2013-06-27 20:51:00,75.2,74.6,29.63,ESE,112,3.7,-999.0,98,-99.99,,,0.58,Acu-Link.com,2013-06-28 00:51:00,
2013-06-27 21:21:00,72.1,71.5,29.60,NE,45,0.0,-999.0,98,-99.99,,,0.96,Acu-Link.com,2013-06-28 01:21:00,
2013-06-27 21:52:00,71.6,71.0,29.61,SSE,157,0.0,-999.0,98,-99.99,,,0.96,Acu-Link.com,2013-06-28 01:52:00,
2013-06-27 23:08:00,70.9,70.3,29.62,SSE,157,1.1,-999.0,98,-99.99,,,0.96,Acu-Link.com,2013-06-28 03:08:00,
2013-06-27 23:23:00,70.7,70.1,29.62,SSE,157,0.0,-999.0,98,-99.99,,,0.96,Acu-Link.com,2013-06-28 03:23:00,
2013-06-27 23:38:00,70.5,69.9,29.61,SSE,157,0.0,-999.0,98,-99.99,,,0.96,Acu-Link.com,2013-06-28 03:38:00,
2013-06-27 23:54:00,70.5,69.9,29.63,SSE,157,0.0,-999.0,98,-99.99,,,0.96,Acu-Link.com,2013-06-28 03:54:00,